Change the Weather History Date:

Sunday, November 13, 2011

  Actual Average (KBRL) Record (KBRL)
Temperature  
Mean Temperature 64 °F 44 °F  
Max Temperature 73 °F 53 °F 76 °F (1989)
Min Temperature 51 °F 35 °F 4 °F (1940)
Degree Days  
Heating Degree Days 2 21  
Month to date heating degree days 239  
Since 1 July heating degree days 633  
Cooling Degree Days 0 0  
Month to date cooling degree days 0  
Year to date cooling degree days 1206  
Growing Degree Days 14 (Base 50)    
Moisture  
Dew Point 43 °F    
Average Humidity 55    
Maximum Humidity 83    
Minimum Humidity 23    
Precipitation  
Precipitation 0.00 in 0.09 in 0.31 in (1951)
Month to date precipitation 1.12  
Year to date precipitation 35.01  
Sea Level Pressure  
Sea Level Pressure 29.46 in    
Wind  
Wind Speed 19 mph (SW)    
Max Wind Speed 36 mph    
Max Gust Speed 46 mph    
Visibility 10 miles    
Events      
T = Trace of Precipitation, MM = Missing Value Source: NWS Daily Summary

Daily Weather History Graph

Daily Weather History Graph

Search for Another Location

Airport or City:

Trip Planner

Search our weather history database for the weather conditions in past years. The results will help you decide how hot, cold, wet, or windy it might be!

Date:

Astronomy

Nov. 13, 2011 Rise Set
Actual Time 6:46 AM CST 4:46 PM CST
Civil Twilight 6:17 AM CST 5:16 PM CST
Nautical Twilight 5:44 AM CST 5:48 PM CST
Astronomical Twilight 5:12 AM CST 6:21 PM CST
Moon 6:55 PM CST (11/13) 9:19 AM CST (11/13)
Length of Visible Light 10h 58m
Length of Day
10h 00m
Waning Gibbous, 92% of the Moon is Illuminated
Nov 13
Waning Gibbous
Nov 18
Last Quarter
Nov 25
New
Dec 2
First Quarter
Dec 10
Full

Hourly Weather History & Observations

Time (CST) Temp. Windchill Dew Point Humidity Pressure Visibility Wind Dir Wind Speed Gust Speed Precip Events Conditions
12:15 AM 57.2 °F - 48.2 °F 72% 29.54 in 10.0 mi South 16.1 mph 25.3 mph N/A   Clear
12:35 AM 56.8 °F - 48.9 °F 75% 29.54 in 10.0 mi SSW 16.1 mph 21.9 mph N/A   Clear
12:55 AM 56.8 °F - 49.1 °F 75% 29.53 in 10.0 mi SSW 16.1 mph 23.0 mph N/A   Clear
1:15 AM 57.0 °F - 49.1 °F 75% 29.53 in 10.0 mi SSW 17.3 mph 23.0 mph N/A   Clear
1:35 AM 56.7 °F - 49.3 °F 76% 29.52 in 10.0 mi SSW 17.3 mph 21.9 mph N/A   Clear
2:15 AM 56.7 °F - 49.5 °F 77% 29.52 in 10.0 mi South 15.0 mph 21.9 mph N/A   Clear
2:35 AM 56.3 °F - 49.5 °F 78% 29.51 in 10.0 mi South 11.5 mph 19.6 mph N/A   Clear
2:55 AM 55.4 °F - 49.3 °F 80% 29.50 in 10.0 mi South 11.5 mph - N/A   Clear
3:15 AM 54.7 °F - 49.3 °F 82% 29.50 in 10.0 mi South 13.8 mph - N/A   Clear
3:35 AM 54.9 °F - 49.3 °F 81% 29.49 in 10.0 mi South 12.7 mph - N/A   Clear
3:55 AM 54.7 °F - 49.5 °F 83% 29.48 in 10.0 mi South 12.7 mph - N/A   Clear
4:15 AM 54.7 °F - 49.6 °F 83% 29.48 in 10.0 mi South 13.8 mph 18.4 mph N/A   Clear
4:35 AM 55.0 °F - 50.0 °F 83% 29.46 in 10.0 mi South 12.7 mph - N/A   Clear
5:15 AM 55.4 °F - 50.0 °F 82% 29.45 in 10.0 mi South 15.0 mph - N/A   Clear
5:35 AM 55.8 °F - 50.5 °F 83% 29.45 in 10.0 mi South 17.3 mph - N/A   Clear
5:55 AM 56.5 °F - 50.9 °F 82% 29.44 in 10.0 mi South 16.1 mph - N/A   Clear
6:15 AM 57.2 °F - 51.3 °F 81% 29.42 in 10.0 mi South 19.6 mph 25.3 mph N/A   Clear
6:35 AM 57.6 °F - 51.8 °F 81% 29.41 in 10.0 mi South 19.6 mph - N/A   Clear
6:55 AM 58.1 °F - 51.8 °F 80% 29.41 in 10.0 mi South 15.0 mph 21.9 mph N/A   Clear
7:15 AM 58.5 °F - 52.0 °F 79% 29.41 in 10.0 mi South 18.4 mph 23.0 mph N/A   Clear
7:35 AM 60.8 °F - 51.8 °F 72% 29.41 in 10.0 mi South 20.7 mph 26.5 mph N/A   Clear
7:55 AM 60.6 °F - 52.5 °F 75% 29.40 in 10.0 mi South 18.4 mph 26.5 mph N/A   Clear
8:35 AM 63.5 °F - 52.9 °F 68% 29.40 in 10.0 mi SSW 19.6 mph 27.6 mph N/A   Clear
8:55 AM 65.3 °F - 52.7 °F 64% 29.40 in 10.0 mi SSW 25.3 mph 33.4 mph N/A   Clear
9:15 AM 66.9 °F - 51.4 °F 57% 29.39 in 10.0 mi SW 31.1 mph 38.0 mph N/A   Clear
9:35 AM 67.5 °F - 50.2 °F 54% 29.40 in 10.0 mi SW 29.9 mph 44.9 mph N/A   Clear
9:55 AM 67.3 °F - 48.9 °F 52% 29.41 in 10.0 mi SW 31.1 mph 41.4 mph N/A   Clear
10:15 AM 68.0 °F - 47.8 °F 48% 29.42 in 10.0 mi SW 34.5 mph 43.7 mph N/A   Clear
10:35 AM 68.9 °F - 46.9 °F 45% 29.43 in 10.0 mi SW 29.9 mph 40.3 mph N/A   Clear
10:55 AM 70.0 °F - 44.8 °F 40% 29.43 in 10.0 mi SW 29.9 mph 36.8 mph N/A   Clear
11:15 AM 70.2 °F - 41.9 °F 36% 29.42 in 10.0 mi SW 26.5 mph 36.8 mph N/A   Clear
11:35 AM 69.6 °F - 41.5 °F 36% 29.41 in 10.0 mi SW 26.5 mph 32.2 mph N/A   Clear
11:55 AM 71.4 °F - 39.0 °F 31% 29.41 in 10.0 mi SW 26.5 mph 35.7 mph N/A   Clear
12:15 PM 72.5 °F - 37.2 °F 28% 29.41 in 10.0 mi SW 24.2 mph 34.5 mph N/A   Clear
12:35 PM 73.0 °F - 35.6 °F 25% 29.42 in 10.0 mi SW 24.2 mph 34.5 mph N/A   Clear
12:55 PM 73.4 °F - 34.9 °F 24% 29.42 in 10.0 mi WSW 26.5 mph 39.1 mph N/A   Clear
1:15 PM 72.5 °F - 33.4 °F 24% 29.42 in 10.0 mi WSW 32.2 mph 42.6 mph N/A   Clear
1:35 PM 72.5 °F - 33.1 °F 24% 29.42 in 10.0 mi WSW 32.2 mph 40.3 mph N/A   Clear
1:55 PM 72.1 °F - 32.5 °F 23% 29.43 in 10.0 mi WSW 31.1 mph 40.3 mph N/A   Clear
2:15 PM 72.0 °F - 32.0 °F 23% 29.44 in 10.0 mi WSW 35.7 mph 46.0 mph N/A   Clear
2:35 PM 71.1 °F - 32.7 °F 24% 29.45 in 10.0 mi WSW 31.1 mph 36.8 mph N/A   Clear
2:55 PM 71.6 °F - 32.7 °F 24% 29.45 in 10.0 mi SW 24.2 mph 43.7 mph N/A   Clear
3:15 PM 71.1 °F - 32.2 °F 24% 29.46 in 10.0 mi WSW 19.6 mph 29.9 mph N/A   Clear
3:35 PM 70.7 °F - 31.6 °F 24% 29.48 in 10.0 mi WSW 28.8 mph 35.7 mph N/A   Clear
3:55 PM 69.6 °F - 32.0 °F 25% 29.50 in 10.0 mi WSW 21.9 mph 29.9 mph N/A   Clear
4:15 PM 64.6 °F - 32.0 °F 30% 29.52 in 10.0 mi WNW 19.6 mph - N/A   Clear
4:35 PM 62.1 °F - 32.0 °F 32% 29.52 in 10.0 mi West 16.1 mph - N/A   Clear
4:55 PM 59.2 °F - 33.1 °F 37% 29.54 in 10.0 mi West 12.7 mph - N/A   Clear
5:15 PM 57.2 °F - 32.9 °F 40% 29.55 in 10.0 mi West 9.2 mph - N/A   Clear
5:35 PM 55.2 °F - 33.6 °F 44% 29.56 in 10.0 mi West 8.1 mph - N/A   Clear
5:55 PM 54.5 °F - 34.2 °F 46% 29.58 in 10.0 mi West 6.9 mph - N/A   Clear
6:15 PM 51.8 °F - 33.8 °F 50% 29.59 in 10.0 mi WSW 5.8 mph - N/A   Clear
6:35 PM 50.7 °F - 33.6 °F 52% 29.60 in 10.0 mi WSW 5.8 mph - N/A   Clear
6:55 PM 50.7 °F - 33.6 °F 52% 29.60 in 10.0 mi WSW 3.5 mph - N/A   Clear
7:15 PM 51.1 °F - 33.1 °F 50% 29.60 in 10.0 mi SW 6.9 mph - N/A   Clear
7:35 PM 49.6 °F - 33.4 °F 54% 29.61 in 10.0 mi SW 5.8 mph - N/A   Clear
7:55 PM 48.9 °F - 34.3 °F 57% 29.62 in 10.0 mi West 8.1 mph - N/A   Clear
8:15 PM 48.4 °F - 34.3 °F 58% 29.63 in 10.0 mi WSW 5.8 mph - N/A   Clear
8:35 PM 50.0 °F - 33.3 °F 53% 29.63 in 10.0 mi WSW 6.9 mph - N/A   Clear
8:55 PM 49.1 °F - 33.8 °F 56% 29.65 in 10.0 mi WSW 8.1 mph - N/A   Clear
9:15 PM 49.1 °F - 34.9 °F 58% 29.65 in 10.0 mi West 9.2 mph - N/A   Clear
9:35 PM 48.7 °F - 35.8 °F 61% 29.66 in 10.0 mi West 8.1 mph - N/A   Clear
9:55 PM 50.0 °F - 35.6 °F 58% 29.66 in 10.0 mi WNW 9.2 mph - N/A   Clear
10:15 PM 48.6 °F - 36.0 °F 62% 29.67 in 10.0 mi West 6.9 mph - N/A   Clear
10:35 PM 46.2 °F 42.7 °F 35.8 °F 67% 29.67 in 10.0 mi WNW 6.9 mph - N/A   Clear
10:55 PM 48.0 °F - 35.2 °F 61% 29.66 in 10.0 mi NW 3.5 mph - N/A   Clear
11:15 PM 46.4 °F - 35.2 °F 65% 29.65 in 10.0 mi Calm Calm - N/A   Clear
11:35 PM 48.0 °F - 34.5 °F 60% 29.66 in 10.0 mi Calm Calm - N/A   Clear
11:55 PM 42.8 °F - 35.1 °F 74% 29.65 in 10.0 mi Calm Calm - N/A   Clear